Weather History for KUCP - March, 2014

Change the Weather History Date:

Thursday, March 20, 2014

  Actual Average (KYNG) Record (KYNG)
Temperature  
Mean Temperature 37 °F 38 °F  
Max Temperature 42 °F 47 °F 80 °F (2012)
Min Temperature 32 °F 29 °F 7 °F (1965)
Degree Days  
Heating Degree Days 28 27  
Month to date heating degree days 607  
Since 1 July heating degree days 5255  
Cooling Degree Days 0 0  
Month to date cooling degree days 0  
Year to date cooling degree days 0  
Moisture  
Dew Point 29 °F    
Average Humidity 77    
Maximum Humidity 93    
Minimum Humidity 60    
Precipitation  
Precipitation 0.00 in 0.10 in - ()
Month to date precipitation 1.80  
Year to date precipitation 6.50  
Snow  
Snow 0.00 in 0.30 in - ()
Month to date snowfall 7.9  
Since 1 July snowfall 56.7  
Snow Depth -    
Sea Level Pressure  
Sea Level Pressure 29.96 in    
Wind  
Wind Speed 13 mph (WSW)    
Max Wind Speed 20 mph    
Max Gust Speed 30 mph    
Visibility 9 miles    
Events Rain , Snow    
T = Trace of Precipitation, MM = Missing Value Source: NWS Daily Summary

Daily Weather History Graph

Daily Weather History Graph

Search for Another Location

Airport or City:

Trip Planner

Search our weather history database for the weather conditions in past years. The results will help you decide how hot, cold, wet, or windy it might be!

Date:

Astronomy

Mar. 20, 2014 Rise Set
Actual Time 7:25 AM EDT 7:33 PM EDT
Civil Twilight 6:57 AM EDT 8:01 PM EDT
Nautical Twilight 6:25 AM EDT 8:33 PM EDT
Astronomical Twilight 5:52 AM EDT 9:06 PM EDT
Moon 11:54 PM EDT (3/20) 9:28 AM EDT (3/20)
Length of Visible Light 13h 03m
Length of Day
12h 08m
Waning Gibbous, 84% of the Moon is Illuminated
Mar 20
Waning Gibbous
Mar 23
Last Quarter
Mar 30
New
Apr 7
First Quarter
Apr 15
Full

Hourly Weather History & Observations

Time (EDT) Temp. Windchill Dew Point Humidity Pressure Visibility Wind Dir Wind Speed Gust Speed Precip Events Conditions
12:06 AM 42.8 °F 34.5 °F 37.4 °F 81% 29.81 in 9.0 mi West 18.4 mph 24.2 mph 0.00 in Rain Light Rain
12:56 AM 39.9 °F 31.8 °F 36.9 °F 89% 29.89 in 10.0 mi West 15.0 mph 25.3 mph 0.00 in   Overcast
1:32 AM 39.2 °F 32.0 °F 37.4 °F 93% 29.85 in 4.0 mi WSW 11.5 mph 21.9 mph 0.00 in Rain Light Rain
1:46 AM 39.2 °F 32.0 °F 35.6 °F 87% 29.85 in 10.0 mi WSW 11.5 mph - 0.00 in   Overcast
1:56 AM 39.2 °F 32.0 °F 35.6 °F 87% 29.86 in 10.0 mi West 11.5 mph - N/A   Overcast
2:18 AM 37.4 °F 29.3 °F 33.8 °F 87% 29.86 in 10.0 mi West 12.7 mph - N/A   Overcast
2:56 AM 37.9 °F 30.5 °F 32.0 °F 79% 29.93 in 10.0 mi West 11.5 mph 26.5 mph N/A   Overcast
3:56 AM 36.9 °F 29.6 °F 31.1 °F 80% 29.93 in 10.0 mi West 10.4 mph - N/A   Overcast
4:56 AM 35.6 °F 27.5 °F 30.2 °F 81% 29.86 in 10.0 mi WSW 11.5 mph - N/A   Overcast
5:27 AM 35.6 °F 29.2 °F 32.0 °F 87% 29.86 in 10.0 mi WSW 8.1 mph - N/A   Mostly Cloudy
5:56 AM 36.0 °F 27.5 °F 32.0 °F 86% 29.94 in 10.0 mi WSW 12.7 mph 18.4 mph N/A   Overcast
6:16 AM 35.6 °F 25.5 °F 30.2 °F 81% 29.88 in 10.0 mi West 17.3 mph 26.5 mph N/A   Mostly Cloudy
6:56 AM 34.9 °F 24.6 °F 30.0 °F 82% 29.95 in 7.0 mi WSW 17.3 mph 26.5 mph 0.00 in   Mostly Cloudy
7:09 AM 35.6 °F 25.2 °F 30.2 °F 81% 29.89 in 8.0 mi WSW 18.4 mph 21.9 mph 0.00 in   Mostly Cloudy
7:56 AM 33.8 °F 22.8 °F 28.4 °F 81% 29.90 in 8.0 mi SW 18.4 mph 29.9 mph N/A   Overcast
8:34 AM 33.8 °F 22.8 °F 26.6 °F 75% 29.91 in 10.0 mi West 18.4 mph 26.5 mph 0.00 in   Overcast
8:56 AM 32.9 °F 23.2 °F 27.1 °F 79% 29.99 in 7.0 mi WSW 13.8 mph 20.7 mph 0.00 in Snow Light Snow
9:56 AM 34.0 °F 25.0 °F 29.1 °F 82% 30.01 in 8.0 mi WSW 12.7 mph 16.1 mph 0.00 in   Mostly Cloudy
10:56 AM 33.8 °F 24.8 °F 26.6 °F 75% 29.96 in 7.0 mi WSW 12.7 mph - N/A   Overcast
11:28 AM 33.8 °F 24.8 °F 26.6 °F 75% 29.97 in 10.0 mi WSW 12.7 mph 23.0 mph 0.00 in   Overcast
11:56 AM 32.9 °F 24.7 °F 27.1 °F 79% 30.05 in 9.0 mi WSW 10.4 mph - 0.00 in   Overcast
12:19 PM 33.8 °F 23.9 °F 26.6 °F 75% 29.98 in 7.0 mi WSW 15.0 mph 20.7 mph 0.00 in   Overcast
12:56 PM 32.9 °F 25.3 °F 27.1 °F 79% 30.05 in 7.0 mi WSW 9.2 mph - 0.00 in Snow Light Snow
1:41 PM 33.8 °F 22.5 °F 24.8 °F 70% 29.97 in 10.0 mi WSW 19.6 mph 27.6 mph 0.00 in   Overcast
1:56 PM 34.0 °F 25.5 °F 25.2 °F 70% 30.04 in 10.0 mi WSW 11.5 mph 23.0 mph 0.00 in   Overcast
2:56 PM 34.0 °F 23.8 °F 26.1 °F 73% 30.04 in 10.0 mi WSW 16.1 mph 23.0 mph 0.00 in   Overcast
3:56 PM 34.9 °F 25.7 °F 26.1 °F 70% 30.04 in 10.0 mi West 13.8 mph 23.0 mph 0.00 in   Overcast
4:56 PM 37.4 °F 30.8 °F 24.8 °F 60% 29.97 in 10.0 mi West 9.2 mph - N/A   Overcast
5:56 PM 36.9 °F 28.2 °F 25.2 °F 63% 30.04 in 10.0 mi WSW 13.8 mph - N/A   Overcast
6:56 PM 36.9 °F 30.7 °F 26.1 °F 65% 30.06 in 10.0 mi West 8.1 mph - N/A   Overcast
7:56 PM 35.6 °F 32.8 °F 26.6 °F 70% 30.00 in 10.0 mi West 3.5 mph - N/A   Mostly Cloudy
8:56 PM 34.0 °F - 25.2 °F 70% 30.09 in 10.0 mi Calm Calm - N/A   Overcast
9:56 PM 32.9 °F - 25.2 °F 73% 30.10 in 10.0 mi Calm Calm - N/A   Overcast
10:56 PM 33.8 °F - 24.8 °F 70% 30.03 in 10.0 mi Calm Calm - N/A   Overcast
11:56 PM 32.9 °F - 24.1 °F 70% 30.10 in 10.0 mi Calm Calm - N/A   Mostly Cloudy